Location: �clusier
(49.9361°N, 2.7869°E)
Time: 22:16:18
(UTC+00:00)

Cosmos 1340 - Pass Details

Date: 16 June 2021
Orbit: 498 x 504 km, 81.2° (Epoch: 02 August)

Event Time Altitude Azimuth Distance (km) Brightness Sun altitude
Exits shadow 22:26:33 12° 214° (SSW) 1,574 4.8 -14.4°
Maximum altitude 22:29:50 46° 287° (WNW) 691 3.6 -14.6°
Drops below altitude 10° 22:33:30 10° 1° (N) 1,729 6.5 -14.8°
Sets 22:35:42 0° 8° (N) 2,620 7.5 -14.9°
